Time,TemperatureF,DewpointF,PressureIn,WindDirection,WindDirectionDegrees,WindSpeedMPH,WindSpeedGustMPH,Humidity,HourlyPrecipIn,Conditions,Clouds,dailyrainin,SoftwareType,DateUTC
2013-11-27 00:01:00,32.9,30.6,29.84,NW,309,0.0,0.0,91,0.00,,,0.01,WeatherCatV1.11B39,2013-11-27 05:01:00,
2013-11-27 00:06:00,32.9,30.6,29.84,NW,309,0.0,0.0,91,0.00,,,0.00,WeatherCatV1.11B39,2013-11-27 05:06:00,
2013-11-27 00:11:00,32.9,30.8,29.83,NW,310,0.0,0.0,92,0.00,,,0.00,WeatherCatV1.11B39,2013-11-27 05:11:00,
2013-11-27 00:16:00,32.9,30.6,29.84,NW,310,0.0,0.0,91,0.00,,,0.00,WeatherCatV1.11B39,2013-11-27 05:16:00,
2013-11-27 00:21:00,32.9,30.8,29.83,NW,310,0.0,0.0,92,0.00,,,0.00,WeatherCatV1.11B39,2013-11-27 05:21:00,
2013-11-27 00:26:00,33.1,31.0,29.83,NW,310,0.0,0.0,92,0.00,,,0.00,WeatherCatV1.11B39,2013-11-27 05:26:00,
2013-11-27 00:31:00,33.1,31.0,29.82,NW,310,0.0,0.0,92,0.00,,,0.00,WeatherCatV1.11B39,2013-11-27 05:31:00,
2013-11-27 00:36:00,33.1,31.0,29.81,NW,310,0.0,0.0,92,0.00,,,0.00,WeatherCatV1.11B39,2013-11-27 05:36:00,
2013-11-27 00:41:00,33.1,31.0,29.81,NW,311,0.0,0.0,92,0.00,,,0.00,WeatherCatV1.11B39,2013-11-27 05:41:00,
2013-11-27 00:46:00,33.1,31.0,29.81,NW,311,0.0,0.0,92,0.00,,,0.00,WeatherCatV1.11B39,2013-11-27 05:46:00,
2013-11-27 00:51:00,33.1,31.0,29.81,NW,311,0.0,0.0,92,0.00,,,0.00,WeatherCatV1.11B39,2013-11-27 05:51:00,
2013-11-27 00:56:00,33.1,31.0,29.80,NW,311,0.0,0.0,92,0.00,,,0.00,WeatherCatV1.11B39,2013-11-27 05:56:00,
2013-11-27 01:01:00,33.1,31.0,29.79,NW,311,0.0,0.0,92,0.00,,,0.01,WeatherCatV1.11B39,2013-11-27 06:01:00,
2013-11-27 01:06:00,33.1,31.0,29.79,North,354,0.0,0.0,92,0.00,,,0.01,WeatherCatV1.11B39,2013-11-27 06:06:00,
2013-11-27 01:11:00,33.0,30.9,29.78,North,354,0.0,0.0,92,0.00,,,0.01,WeatherCatV1.11B39,2013-11-27 06:11:00,
2013-11-27 01:16:00,33.1,31.0,29.78,North,354,0.0,0.0,92,0.00,,,0.01,WeatherCatV1.11B39,2013-11-27 06:16:00,
2013-11-27 01:21:00,33.1,31.0,29.78,North,355,0.0,0.0,92,0.00,,,0.01,WeatherCatV1.11B39,2013-11-27 06:21:00,
2013-11-27 01:26:00,33.1,31.3,29.76,North,359,0.0,0.0,93,0.00,,,0.01,WeatherCatV1.11B39,2013-11-27 06:26:00,
2013-11-27 01:31:00,33.0,31.2,29.76,NNE,23,0.0,0.0,93,0.00,,,0.01,WeatherCatV1.11B39,2013-11-27 06:31:00,
2013-11-27 01:36:00,33.2,31.1,29.75,NNE,23,0.0,0.0,92,0.00,,,0.01,WeatherCatV1.11B39,2013-11-27 06:36:00,
2013-11-27 01:41:00,33.2,31.4,29.74,NNE,28,0.0,0.0,93,0.00,,,0.01,WeatherCatV1.11B39,2013-11-27 06:41:00,
2013-11-27 01:46:00,33.2,31.1,29.72,NE,53,0.0,0.0,92,0.00,,,0.01,WeatherCatV1.11B39,2013-11-27 06:46:00,
2013-11-27 01:51:00,33.2,31.4,29.72,NE,55,0.0,0.0,93,0.00,,,0.01,WeatherCatV1.11B39,2013-11-27 06:51:00,
2013-11-27 01:56:00,33.2,31.4,29.72,NE,56,0.0,0.0,93,0.00,,,0.01,WeatherCatV1.11B39,2013-11-27 06:56:00,
2013-11-27 02:01:00,33.3,31.5,29.72,NE,55,0.0,0.0,93,0.00,,,0.01,WeatherCatV1.11B39,2013-11-27 07:01:00,
2013-11-27 02:06:00,33.3,31.5,29.72,NE,55,0.0,0.0,93,0.00,,,0.01,WeatherCatV1.11B39,2013-11-27 07:06:00,
2013-11-27 02:11:00,33.5,32.0,29.71,NE,55,0.0,0.0,94,0.00,,,0.01,WeatherCatV1.11B39,2013-11-27 07:11:00,
2013-11-27 02:16:00,33.5,32.0,29.70,NE,55,0.0,0.0,94,0.00,,,0.01,WeatherCatV1.11B39,2013-11-27 07:16:00,
2013-11-27 02:21:00,33.5,31.7,29.70,NE,55,0.0,0.0,93,0.00,,,0.01,WeatherCatV1.11B39,2013-11-27 07:21:00,
2013-11-27 02:26:00,33.5,32.0,29.69,NE,55,0.0,0.0,94,0.00,,,0.01,WeatherCatV1.11B39,2013-11-27 07:26:00,
2013-11-27 02:31:00,33.6,32.1,29.68,NE,55,0.0,0.0,94,0.00,,,0.01,WeatherCatV1.11B39,2013-11-27 07:31:00,
2013-11-27 02:36:00,33.5,32.0,29.67,NE,55,0.0,0.0,94,0.00,,,0.01,WeatherCatV1.11B39,2013-11-27 07:36:00,
2013-11-27 02:41:00,33.5,31.7,29.67,NE,55,0.0,0.0,93,0.00,,,0.01,WeatherCatV1.11B39,2013-11-27 07:41:00,
2013-11-27 02:46:00,33.5,32.0,29.66,NE,55,0.0,0.0,94,0.00,,,0.01,WeatherCatV1.11B39,2013-11-27 07:46:00,
2013-11-27 02:51:00,33.5,31.7,29.64,NE,55,0.0,0.0,93,0.00,,,0.01,WeatherCatV1.11B39,2013-11-27 07:51:00,
2013-11-27 02:56:00,33.6,32.1,29.64,NE,55,0.0,0.0,94,0.00,,,0.01,WeatherCatV1.11B39,2013-11-27 07:56:00,
2013-11-27 03:01:00,33.7,31.9,29.62,NE,55,0.0,0.0,93,0.00,,,0.01,WeatherCatV1.11B39,2013-11-27 08:01:00,
2013-11-27 03:06:00,33.6,32.1,29.61,NE,55,0.0,0.0,94,0.00,,,0.02,WeatherCatV1.11B39,2013-11-27 08:06:00,
2013-11-27 03:11:00,33.6,32.1,29.61,NE,55,0.0,0.0,94,0.00,,,0.02,WeatherCatV1.11B39,2013-11-27 08:11:00,
2013-11-27 03:16:00,33.8,32.3,29.60,NE,55,0.0,0.0,94,0.00,,,0.02,WeatherCatV1.11B39,2013-11-27 08:16:00,
2013-11-27 03:21:00,33.9,32.4,29.59,NE,55,0.0,0.0,94,0.00,,,0.02,WeatherCatV1.11B39,2013-11-27 08:21:00,
2013-11-27 03:27:00,33.9,32.4,29.59,NE,55,0.0,0.0,94,0.00,,,0.02,WeatherCatV1.11B39,2013-11-27 08:27:00,
2013-11-27 03:32:00,34.1,32.6,29.58,NE,55,0.0,0.0,94,0.00,,,0.02,WeatherCatV1.11B39,2013-11-27 08:32:00,
2013-11-27 03:37:00,34.2,32.7,29.58,NE,54,0.0,0.0,94,0.00,,,0.02,WeatherCatV1.11B39,2013-11-27 08:37:00,
2013-11-27 03:42:00,34.2,32.7,29.58,NE,55,0.0,0.0,94,0.00,,,0.02,WeatherCatV1.11B39,2013-11-27 08:42:00,
2013-11-27 03:47:00,34.3,32.8,29.55,NE,54,0.0,0.0,94,0.00,,,0.02,WeatherCatV1.11B39,2013-11-27 08:47:00,
2013-11-27 03:52:00,34.3,32.8,29.55,NE,55,0.0,0.0,94,0.00,,,0.02,WeatherCatV1.11B39,2013-11-27 08:52:00,
2013-11-27 03:57:00,34.5,33.0,29.55,NE,54,0.0,0.0,94,0.00,,,0.02,WeatherCatV1.11B39,2013-11-27 08:57:00,
2013-11-27 04:02:00,34.5,33.0,29.53,NE,54,0.0,0.0,94,0.00,,,0.02,WeatherCatV1.11B39,2013-11-27 09:02:00,
2013-11-27 04:07:00,34.5,33.0,29.52,NE,54,0.0,0.0,94,0.00,,,0.02,WeatherCatV1.11B39,2013-11-27 09:07:00,
2013-11-27 04:11:00,34.5,33.0,29.52,NE,54,0.0,0.0,94,0.00,,,0.01,WeatherCatV1.11B39,2013-11-27 09:11:00,
2013-11-27 04:16:00,34.5,33.0,29.51,NE,54,0.0,0.0,94,0.00,,,0.02,WeatherCatV1.11B39,2013-11-27 09:16:00,
2013-11-27 04:22:00,34.5,33.0,29.50,NE,53,0.0,0.0,94,0.00,,,0.02,WeatherCatV1.11B39,2013-11-27 09:22:00,
2013-11-27 04:27:00,34.6,33.1,29.49,NE,54,0.0,0.0,94,0.00,,,0.02,WeatherCatV1.11B39,2013-11-27 09:27:00,
2013-11-27 04:31:00,34.8,33.3,29.48,NE,53,0.0,0.0,94,0.00,,,0.03,WeatherCatV1.11B39,2013-11-27 09:31:00,
2013-11-27 04:36:00,34.8,33.3,29.48,NE,53,0.0,0.0,94,0.00,,,0.03,WeatherCatV1.11B39,2013-11-27 09:36:00,
2013-11-27 04:41:00,35.1,33.5,29.47,NE,53,0.0,0.0,94,0.00,,,0.03,WeatherCatV1.11B39,2013-11-27 09:41:00,
2013-11-27 04:46:00,35.1,33.5,29.46,NE,53,0.0,0.0,94,0.08,,,0.05,WeatherCatV1.11B39,2013-11-27 09:46:00,
2013-11-27 04:52:00,35.1,33.5,29.45,NE,53,0.0,0.0,94,0.28,,,0.07,WeatherCatV1.11B39,2013-11-27 09:52:00,
2013-11-27 04:57:00,35.2,33.6,29.45,NE,53,0.0,0.0,94,0.01,,,0.08,WeatherCatV1.11B39,2013-11-27 09:57:00,
2013-11-27 05:02:00,35.3,33.7,29.44,NE,53,0.0,0.0,94,0.00,,,0.09,WeatherCatV1.11B39,2013-11-27 10:02:00,
2013-11-27 05:07:00,35.4,33.8,29.43,NE,53,0.0,0.0,94,0.00,,,0.10,WeatherCatV1.11B39,2013-11-27 10:07:00,
2013-11-27 05:12:00,35.5,33.9,29.42,NE,53,0.0,0.0,94,0.00,,,0.11,WeatherCatV1.11B39,2013-11-27 10:12:00,
2013-11-27 05:17:00,35.5,33.9,29.42,NE,53,0.0,0.0,94,0.13,,,0.13,WeatherCatV1.11B39,2013-11-27 10:17:00,
2013-11-27 05:22:00,35.5,33.9,29.41,NE,53,0.0,0.0,94,0.25,,,0.16,WeatherCatV1.11B39,2013-11-27 10:22:00,
2013-11-27 05:27:00,35.5,33.9,29.41,NE,53,0.0,0.0,94,0.03,,,0.17,WeatherCatV1.11B39,2013-11-27 10:27:00,
2013-11-27 05:32:00,35.7,34.1,29.39,NE,53,0.0,0.0,94,0.09,,,0.18,WeatherCatV1.11B39,2013-11-27 10:32:00,
2013-11-27 05:37:00,35.9,34.3,29.38,NE,53,0.0,0.0,94,0.00,,,0.18,WeatherCatV1.11B39,2013-11-27 10:37:00,
2013-11-27 05:42:00,36.2,34.9,29.37,NE,53,0.0,0.0,95,0.16,,,0.20,WeatherCatV1.11B39,2013-11-27 10:42:00,
2013-11-27 05:47:00,36.4,35.1,29.37,NE,53,0.0,0.0,95,0.57,,,0.23,WeatherCatV1.11B39,2013-11-27 10:47:00,
2013-11-27 05:52:00,36.6,35.3,29.35,NE,43,0.0,0.0,95,0.25,,,0.25,WeatherCatV1.11B39,2013-11-27 10:52:00,
2013-11-27 05:57:00,36.6,35.3,29.36,NE,43,0.0,0.0,95,0.19,,,0.27,WeatherCatV1.11B39,2013-11-27 10:57:00,
2013-11-27 06:02:00,36.8,35.5,29.35,NE,42,0.0,0.0,95,0.05,,,0.28,WeatherCatV1.11B39,2013-11-27 11:02:00,
2013-11-27 06:07:00,37.7,36.4,29.34,NE,42,0.0,0.0,95,0.09,,,0.30,WeatherCatV1.11B39,2013-11-27 11:07:00,
2013-11-27 06:12:00,38.2,36.9,29.34,NE,42,0.0,0.0,95,0.86,,,0.33,WeatherCatV1.11B39,2013-11-27 11:12:00,
2013-11-27 06:17:00,38.5,37.2,29.33,NE,41,0.0,0.0,95,0.09,,,0.36,WeatherCatV1.11B39,2013-11-27 11:17:00,
2013-11-27 06:22:00,39.3,38.3,29.32,NE,41,0.0,0.0,96,0.08,,,0.38,WeatherCatV1.11B39,2013-11-27 11:22:00,
2013-11-27 06:27:00,39.8,38.5,29.31,NNE,32,0.0,0.0,95,0.10,,,0.40,WeatherCatV1.11B39,2013-11-27 11:27:00,
2013-11-27 06:32:00,39.6,38.3,29.30,NNE,32,0.0,0.0,95,0.06,,,0.42,WeatherCatV1.11B39,2013-11-27 11:32:00,
2013-11-27 06:37:00,40.7,39.6,29.30,NNE,32,0.0,0.0,96,0.02,,,0.44,WeatherCatV1.11B39,2013-11-27 11:37:00,
2013-11-27 06:42:00,41.2,40.1,29.29,NNE,32,0.0,0.0,96,0.28,,,0.47,WeatherCatV1.11B39,2013-11-27 11:42:00,
2013-11-27 06:47:00,44.2,43.4,29.28,NNE,32,0.0,0.0,97,0.00,,,0.48,WeatherCatV1.11B39,2013-11-27 11:47:00,
2013-11-27 06:52:00,45.6,44.8,29.27,NNE,32,0.0,0.0,97,0.00,,,0.49,WeatherCatV1.11B39,2013-11-27 11:52:00,
2013-11-27 06:57:00,46.6,45.8,29.26,NNE,32,0.0,0.0,97,0.00,,,0.50,WeatherCatV1.11B39,2013-11-27 11:57:00,
2013-11-27 07:02:00,47.7,46.9,29.26,NE,42,0.0,0.0,97,0.00,,,0.51,WeatherCatV1.11B39,2013-11-27 12:02:00,
2013-11-27 07:07:00,49.0,48.5,29.26,ESE,105,1.0,3.0,98,0.08,,,0.52,WeatherCatV1.11B39,2013-11-27 12:07:00,
2013-11-27 07:12:00,51.7,51.2,29.26,SW,234,0.0,3.0,98,0.00,,,0.52,WeatherCatV1.11B39,2013-11-27 12:12:00,
2013-11-27 07:17:00,53.3,52.7,29.25,SE,125,6.0,6.0,98,0.00,,,0.53,WeatherCatV1.11B39,2013-11-27 12:17:00,
2013-11-27 07:22:00,54.4,53.8,29.25,South,174,0.0,7.0,98,0.02,,,0.54,WeatherCatV1.11B39,2013-11-27 12:22:00,
2013-11-27 07:27:00,55.0,54.7,29.25,SSE,153,5.0,6.0,99,0.03,,,0.55,WeatherCatV1.11B39,2013-11-27 12:27:00,
2013-11-27 07:32:00,55.7,55.4,29.24,SSE,166,0.0,9.0,99,0.00,,,0.57,WeatherCatV1.11B39,2013-11-27 12:32:00,
2013-11-27 07:37:00,56.1,55.8,29.23,South,179,1.0,8.0,99,0.43,,,0.59,WeatherCatV1.11B39,2013-11-27 12:37:00,
2013-11-27 07:42:00,56.3,55.7,29.22,SSE,156,0.0,5.0,98,0.05,,,0.60,WeatherCatV1.11B39,2013-11-27 12:42:00,
2013-11-27 07:47:00,56.6,56.3,29.22,SSE,153,2.0,5.0,99,0.00,,,0.60,WeatherCatV1.11B39,2013-11-27 12:47:00,
2013-11-27 07:52:00,56.7,56.4,29.22,South,187,3.0,7.0,99,0.03,,,0.61,WeatherCatV1.11B39,2013-11-27 12:52:00,
2013-11-27 07:57:00,57.0,56.4,29.21,South,179,1.0,6.0,98,0.00,,,0.62,WeatherCatV1.11B39,2013-11-27 12:57:00,
2013-11-27 08:02:00,57.3,57.0,29.21,SSE,168,3.0,3.0,99,0.00,,,0.63,WeatherCatV1.11B39,2013-11-27 13:02:00,
2013-11-27 08:07:00,57.4,56.8,29.22,WSW,247,0.0,4.0,98,0.17,,,0.65,WeatherCatV1.11B39,2013-11-27 13:07:00,
2013-11-27 08:12:00,57.4,56.8,29.22,WSW,248,3.0,6.0,98,0.28,,,0.67,WeatherCatV1.11B39,2013-11-27 13:12:00,
2013-11-27 08:17:00,57.8,57.2,29.22,SW,231,0.0,4.0,98,0.03,,,0.68,WeatherCatV1.11B39,2013-11-27 13:17:00,
2013-11-27 08:22:00,57.9,57.3,29.22,South,187,0.0,5.0,98,0.28,,,0.71,WeatherCatV1.11B39,2013-11-27 13:22:00,
2013-11-27 08:27:00,57.9,57.3,29.22,WNW,285,4.0,5.0,98,0.34,,,0.74,WeatherCatV1.11B39,2013-11-27 13:27:00,
2013-11-27 08:32:00,57.9,57.3,29.22,WSW,254,0.0,3.0,98,0.43,,,0.78,WeatherCatV1.11B39,2013-11-27 13:32:00,
2013-11-27 08:37:00,58.1,57.5,29.22,WSW,249,0.0,5.0,98,0.58,,,0.84,WeatherCatV1.11B39,2013-11-27 13:37:00,
2013-11-27 08:42:00,58.1,57.3,29.20,WSW,247,0.0,0.0,97,0.57,,,0.87,WeatherCatV1.11B39,2013-11-27 13:42:00,
2013-11-27 08:47:00,57.9,57.1,29.20,WSW,247,0.0,0.0,97,0.16,,,0.89,WeatherCatV1.11B39,2013-11-27 13:47:00,
2013-11-27 08:52:00,57.9,57.1,29.20,WSW,247,0.0,0.0,97,0.22,,,0.91,WeatherCatV1.11B39,2013-11-27 13:52:00,
2013-11-27 08:57:00,57.9,57.1,29.20,WSW,247,0.0,0.0,97,0.43,,,0.94,WeatherCatV1.11B39,2013-11-27 13:57:00,
2013-11-27 09:02:00,58.1,57.3,29.20,WSW,247,0.0,0.0,97,0.43,,,0.97,WeatherCatV1.11B39,2013-11-27 14:02:00,
2013-11-27 09:07:00,58.1,57.3,29.19,WSW,247,0.0,0.0,97,0.02,,,0.98,WeatherCatV1.11B39,2013-11-27 14:07:00,
2013-11-27 09:12:00,57.9,57.1,29.19,WSW,247,0.0,0.0,97,0.17,,,1.00,WeatherCatV1.11B39,2013-11-27 14:12:00,
2013-11-27 09:17:00,57.8,57.0,29.19,WSW,247,0.0,0.0,97,0.02,,,1.01,WeatherCatV1.11B39,2013-11-27 14:17:00,
2013-11-27 09:22:00,57.8,57.0,29.18,WSW,247,0.0,0.0,97,0.00,,,1.02,WeatherCatV1.11B39,2013-11-27 14:22:00,
2013-11-27 09:27:00,57.6,56.8,29.18,WSW,247,0.0,0.0,97,0.00,,,1.03,WeatherCatV1.11B39,2013-11-27 14:27:00,
2013-11-27 09:32:00,57.5,56.7,29.17,WSW,247,0.0,0.0,97,0.05,,,1.04,WeatherCatV1.11B39,2013-11-27 14:32:00,
2013-11-27 09:37:00,57.8,57.0,29.17,WSW,247,0.0,0.0,97,0.00,,,1.04,WeatherCatV1.11B39,2013-11-27 14:37:00,
2013-11-27 09:42:00,57.8,57.0,29.17,WSW,247,0.0,0.0,97,0.00,,,1.04,WeatherCatV1.11B39,2013-11-27 14:42:00,
2013-11-27 09:47:00,57.4,56.6,29.17,WSW,247,0.0,0.0,97,0.00,,,1.05,WeatherCatV1.11B39,2013-11-27 14:47:00,
2013-11-27 09:52:00,57.2,56.4,29.16,WSW,247,0.0,0.0,97,0.00,,,1.05,WeatherCatV1.11B39,2013-11-27 14:52:00,
2013-11-27 09:57:00,56.1,55.0,29.16,South,180,0.0,0.0,96,0.00,,,1.05,WeatherCatV1.11B39,2013-11-27 14:57:00,
2013-11-27 10:02:00,55.8,55.0,29.15,West,272,0.0,0.0,97,0.00,,,1.06,WeatherCatV1.11B39,2013-11-27 15:02:00,
2013-11-27 10:07:00,56.0,55.2,29.15,West,273,0.0,0.0,97,0.00,,,1.06,WeatherCatV1.11B39,2013-11-27 15:07:00,
2013-11-27 10:12:00,55.9,55.1,29.15,West,273,0.0,0.0,97,0.00,,,1.06,WeatherCatV1.11B39,2013-11-27 15:12:00,
2013-11-27 10:17:00,55.8,55.0,29.14,West,273,0.0,0.0,97,0.00,,,1.06,WeatherCatV1.11B39,2013-11-27 15:17:00,
2013-11-27 10:22:00,56.0,55.2,29.14,West,274,0.0,0.0,97,0.00,,,1.07,WeatherCatV1.11B39,2013-11-27 15:22:00,
2013-11-27 10:27:00,55.8,55.0,29.14,West,273,0.0,0.0,97,0.00,,,1.07,WeatherCatV1.11B39,2013-11-27 15:27:00,
2013-11-27 10:32:00,56.0,55.2,29.14,West,273,0.0,0.0,97,0.00,,,1.07,WeatherCatV1.11B39,2013-11-27 15:32:00,
2013-11-27 10:37:00,56.1,55.3,29.14,West,273,0.0,0.0,97,0.00,,,1.07,WeatherCatV1.11B39,2013-11-27 15:37:00,
2013-11-27 10:42:00,56.4,55.6,29.14,West,273,0.0,0.0,97,0.00,,,1.07,WeatherCatV1.11B39,2013-11-27 15:42:00,
2013-11-27 10:47:00,57.3,56.5,29.14,NW,308,0.0,5.0,97,0.00,,,1.07,WeatherCatV1.11B39,2013-11-27 15:47:00,
2013-11-27 10:52:00,58.1,57.5,29.13,NW,309,0.0,0.0,98,0.00,,,1.07,WeatherCatV1.11B39,2013-11-27 15:52:00,
2013-11-27 10:57:00,58.8,58.2,29.13,West,261,0.0,0.0,98,0.00,,,1.07,WeatherCatV1.11B39,2013-11-27 15:57:00,
2013-11-27 11:02:00,59.0,58.4,29.12,West,261,0.0,0.0,98,0.00,,,1.07,WeatherCatV1.11B39,2013-11-27 16:02:00,
2013-11-27 11:07:00,59.8,59.2,29.12,WSW,240,0.0,0.0,98,0.00,,,1.07,WeatherCatV1.11B39,2013-11-27 16:07:00,
2013-11-27 11:12:00,60.4,59.8,29.12,SW,222,0.0,1.0,98,0.00,,,1.08,WeatherCatV1.11B39,2013-11-27 16:12:00,
2013-11-27 11:17:00,60.7,60.1,29.12,SSW,213,0.0,0.0,98,0.00,,,1.08,WeatherCatV1.11B39,2013-11-27 16:17:00,
2013-11-27 11:22:00,60.8,60.2,29.11,South,182,0.0,0.0,98,0.03,,,1.09,WeatherCatV1.11B39,2013-11-27 16:22:00,
2013-11-27 11:27:00,60.5,59.9,29.11,South,182,0.0,0.0,98,0.00,,,1.09,WeatherCatV1.11B39,2013-11-27 16:27:00,
2013-11-27 11:32:00,60.1,59.5,29.11,South,181,0.0,0.0,98,0.05,,,1.10,WeatherCatV1.11B39,2013-11-27 16:32:00,
2013-11-27 11:37:00,58.8,57.9,29.11,South,181,0.0,0.0,97,0.00,,,1.10,WeatherCatV1.11B39,2013-11-27 16:37:00,
2013-11-27 11:42:00,58.8,57.9,29.11,South,181,0.0,0.0,97,0.00,,,1.11,WeatherCatV1.11B39,2013-11-27 16:42:00,
2013-11-27 11:47:00,57.4,56.6,29.11,WSW,248,0.0,0.0,97,0.00,,,1.11,WeatherCatV1.11B39,2013-11-27 16:47:00,
2013-11-27 11:52:00,56.6,55.8,29.10,NE,42,0.0,0.0,97,0.02,,,1.12,WeatherCatV1.11B39,2013-11-27 16:52:00,
2013-11-27 11:57:00,57.0,56.2,29.10,NE,45,0.0,0.0,97,0.00,,,1.12,WeatherCatV1.11B39,2013-11-27 16:57:00,
2013-11-27 12:02:00,57.1,56.5,29.09,NE,45,0.0,0.0,98,0.00,,,1.12,WeatherCatV1.11B39,2013-11-27 17:02:00,
2013-11-27 12:07:00,56.6,55.8,29.09,NE,45,0.0,0.0,97,0.00,,,1.13,WeatherCatV1.11B39,2013-11-27 17:07:00,
2013-11-27 12:12:00,57.5,56.9,29.08,NE,53,0.0,0.0,98,0.00,,,1.13,WeatherCatV1.11B39,2013-11-27 17:12:00,
2013-11-27 12:17:00,58.5,57.9,29.09,SE,135,0.0,0.0,98,0.00,,,1.13,WeatherCatV1.11B39,2013-11-27 17:17:00,
2013-11-27 12:22:00,59.5,58.9,29.08,SE,125,0.0,0.0,98,0.00,,,1.13,WeatherCatV1.11B39,2013-11-27 17:22:00,
2013-11-27 12:27:00,59.9,59.3,29.08,SE,124,0.0,0.0,98,0.03,,,1.14,WeatherCatV1.11B39,2013-11-27 17:27:00,
2013-11-27 12:32:00,60.1,59.5,29.08,SE,124,0.0,0.0,98,0.00,,,1.14,WeatherCatV1.11B39,2013-11-27 17:32:00,
2013-11-27 12:37:00,60.0,59.4,29.07,ESE,123,0.0,0.0,98,0.00,,,1.14,WeatherCatV1.11B39,2013-11-27 17:37:00,
2013-11-27 12:42:00,60.4,60.1,29.07,ESE,123,0.0,0.0,99,0.00,,,1.15,WeatherCatV1.11B39,2013-11-27 17:42:00,
2013-11-27 12:47:00,60.5,59.9,29.07,SE,132,0.0,0.0,98,0.00,,,1.15,WeatherCatV1.11B39,2013-11-27 17:47:00,
2013-11-27 12:52:00,60.8,60.2,29.07,South,175,0.0,4.0,98,0.01,,,1.16,WeatherCatV1.11B39,2013-11-27 17:52:00,
2013-11-27 12:57:00,60.7,60.4,29.07,West,260,0.0,0.0,99,0.00,,,1.16,WeatherCatV1.11B39,2013-11-27 17:57:00,
2013-11-27 13:02:00,58.7,57.8,29.08,WNW,282,0.0,1.0,97,0.00,,,1.16,WeatherCatV1.11B39,2013-11-27 18:02:00,
2013-11-27 13:07:00,56.7,55.9,29.08,NW,304,0.0,1.0,97,0.04,,,1.17,WeatherCatV1.11B39,2013-11-27 18:07:00,
2013-11-27 13:12:00,56.0,55.2,29.08,NW,319,0.0,0.0,97,0.00,,,1.17,WeatherCatV1.11B39,2013-11-27 18:12:00,
2013-11-27 13:17:00,55.3,54.5,29.07,WNW,295,0.0,5.0,97,0.06,,,1.18,WeatherCatV1.11B39,2013-11-27 18:17:00,
2013-11-27 13:22:00,55.1,54.3,29.08,WNW,296,0.0,5.0,97,0.11,,,1.19,WeatherCatV1.11B39,2013-11-27 18:22:00,
2013-11-27 13:27:00,54.5,53.7,29.07,WNW,291,0.0,3.0,97,0.00,,,1.19,WeatherCatV1.11B39,2013-11-27 18:27:00,
2013-11-27 13:32:00,54.4,53.6,29.06,WNW,291,0.0,0.0,97,0.00,,,1.19,WeatherCatV1.11B39,2013-11-27 18:32:00,
2013-11-27 13:37:00,54.2,53.4,29.06,WNW,291,0.0,0.0,97,0.00,,,1.20,WeatherCatV1.11B39,2013-11-27 18:37:00,
2013-11-27 13:42:00,53.8,53.0,29.07,WNW,289,6.0,7.0,97,0.05,,,1.21,WeatherCatV1.11B39,2013-11-27 18:42:00,
2013-11-27 13:47:00,53.5,52.7,29.07,WNW,291,11.0,14.0,97,0.00,,,1.21,WeatherCatV1.11B39,2013-11-27 18:47:00,
2013-11-27 13:52:00,53.0,52.2,29.07,WNW,288,8.0,16.0,97,0.00,,,1.21,WeatherCatV1.11B39,2013-11-27 18:52:00,
2013-11-27 13:56:00,52.8,52.0,29.07,WNW,286,11.0,13.0,97,0.00,,,1.21,WeatherCatV1.11B39,2013-11-27 18:56:00,
2013-11-27 14:01:00,52.3,51.5,29.07,WNW,286,8.0,17.0,97,0.00,,,1.21,WeatherCatV1.11B39,2013-11-27 19:01:00,
2013-11-27 14:06:00,52.0,50.9,29.05,WNW,294,0.0,3.0,96,0.00,,,1.21,WeatherCatV1.11B39,2013-11-27 19:06:00,
2013-11-27 14:11:00,51.8,50.7,29.05,WNW,298,0.0,0.0,96,0.00,,,1.21,WeatherCatV1.11B39,2013-11-27 19:11:00,
2013-11-27 14:16:00,51.6,50.8,29.05,WNW,299,2.0,7.0,97,0.00,,,1.21,WeatherCatV1.11B39,2013-11-27 19:16:00,
2013-11-27 14:21:00,51.3,50.2,29.06,WNW,299,4.0,4.0,96,0.00,,,1.21,WeatherCatV1.11B39,2013-11-27 19:21:00,
2013-11-27 14:26:00,51.0,49.9,29.07,WNW,293,3.0,14.0,96,0.00,,,1.21,WeatherCatV1.11B39,2013-11-27 19:26:00,
2013-11-27 14:31:00,50.6,49.5,29.07,WNW,300,0.0,3.0,96,0.00,,,1.21,WeatherCatV1.11B39,2013-11-27 19:31:00,
2013-11-27 14:36:00,49.9,48.5,29.08,WNW,303,0.0,3.0,95,0.00,,,1.21,WeatherCatV1.11B39,2013-11-27 19:36:00,
2013-11-27 14:41:00,49.5,48.1,29.09,WNW,295,5.0,6.0,95,0.00,,,1.21,WeatherCatV1.11B39,2013-11-27 19:41:00,
2013-11-27 14:46:00,49.2,47.8,29.09,WNW,298,0.0,0.0,95,0.00,,,1.21,WeatherCatV1.11B39,2013-11-27 19:46:00,
2013-11-27 14:51:00,49.1,47.7,29.09,NW,305,0.0,0.0,95,0.00,,,1.21,WeatherCatV1.11B39,2013-11-27 19:51:00,
2013-11-27 14:56:00,49.1,47.7,29.08,NW,313,0.0,0.0,95,0.00,,,1.21,WeatherCatV1.11B39,2013-11-27 19:56:00,
2013-11-27 15:01:00,49.0,47.6,29.07,NNW,332,0.0,0.0,95,0.00,,,1.21,WeatherCatV1.11B39,2013-11-27 20:01:00,
2013-11-27 15:06:00,48.8,47.4,29.07,North,1,0.0,0.0,95,0.00,,,1.22,WeatherCatV1.11B39,2013-11-27 20:06:00,
2013-11-27 15:11:00,48.8,47.4,29.08,NNW,344,0.0,0.0,95,0.00,,,1.22,WeatherCatV1.11B39,2013-11-27 20:11:00,
2013-11-27 15:16:00,48.5,47.1,29.08,NW,312,0.0,0.0,95,0.00,,,1.22,WeatherCatV1.11B39,2013-11-27 20:16:00,
2013-11-27 15:21:00,48.2,46.8,29.09,WNW,289,4.0,7.0,95,0.00,,,1.22,WeatherCatV1.11B39,2013-11-27 20:21:00,
2013-11-27 15:26:00,47.9,46.3,29.08,NNW,341,0.0,0.0,94,0.00,,,1.23,WeatherCatV1.11B39,2013-11-27 20:26:00,
2013-11-27 15:31:00,47.7,46.1,29.08,North,3,0.0,4.0,94,0.00,,,1.23,WeatherCatV1.11B39,2013-11-27 20:31:00,
2013-11-27 15:36:00,47.6,46.2,29.08,North,2,0.0,2.0,95,0.00,,,1.23,WeatherCatV1.11B39,2013-11-27 20:36:00,
2013-11-27 15:41:00,47.6,46.0,29.08,ESE,110,0.0,1.0,94,0.00,,,1.23,WeatherCatV1.11B39,2013-11-27 20:41:00,
2013-11-27 15:46:00,47.6,46.0,29.08,SSW,195,0.0,0.0,94,0.00,,,1.23,WeatherCatV1.11B39,2013-11-27 20:46:00,
2013-11-27 15:51:00,47.4,46.0,29.09,SSW,195,0.0,0.0,95,0.00,,,1.23,WeatherCatV1.11B39,2013-11-27 20:51:00,
2013-11-27 15:56:00,47.3,45.7,29.08,WNW,285,0.0,0.0,94,0.00,,,1.23,WeatherCatV1.11B39,2013-11-27 20:56:00,
2013-11-27 16:01:00,47.1,45.5,29.08,WNW,298,0.0,0.0,94,0.00,,,1.23,WeatherCatV1.11B39,2013-11-27 21:01:00,
2013-11-27 16:06:00,47.0,45.4,29.08,NNW,335,0.0,0.0,94,0.00,,,1.23,WeatherCatV1.11B39,2013-11-27 21:06:00,
2013-11-27 16:11:00,46.8,45.2,29.06,NW,321,0.0,0.0,94,0.00,,,1.23,WeatherCatV1.11B39,2013-11-27 21:11:00,
2013-11-27 16:16:00,46.7,45.1,29.07,NW,319,0.0,0.0,94,0.00,,,1.23,WeatherCatV1.11B39,2013-11-27 21:16:00,
2013-11-27 16:21:00,46.6,45.0,29.08,NNW,334,0.0,0.0,94,0.00,,,1.23,WeatherCatV1.11B39,2013-11-27 21:21:00,
2013-11-27 16:26:00,46.4,44.8,29.08,NW,321,0.0,0.0,94,0.00,,,1.23,WeatherCatV1.11B39,2013-11-27 21:26:00,
2013-11-27 16:31:00,46.3,44.7,29.08,WNW,296,3.0,4.0,94,0.00,,,1.23,WeatherCatV1.11B39,2013-11-27 21:31:00,
2013-11-27 16:36:00,46.0,44.4,29.08,WNW,292,0.0,0.0,94,0.00,,,1.23,WeatherCatV1.11B39,2013-11-27 21:36:00,
2013-11-27 16:41:00,45.7,43.8,29.09,WNW,294,5.0,9.0,93,0.00,,,1.23,WeatherCatV1.11B39,2013-11-27 21:41:00,
2013-11-27 16:46:00,45.4,43.5,29.09,WNW,296,0.0,5.0,93,0.00,,,1.23,WeatherCatV1.11B39,2013-11-27 21:46:00,
2013-11-27 16:51:00,45.4,43.2,29.09,WNW,289,5.0,8.0,92,0.00,,,1.23,WeatherCatV1.11B39,2013-11-27 21:51:00,
2013-11-27 16:56:00,45.3,43.1,29.09,WNW,298,0.0,5.0,92,0.00,,,1.23,WeatherCatV1.11B39,2013-11-27 21:56:00,
2013-11-27 17:01:00,45.3,43.1,29.08,NW,325,0.0,0.0,92,0.00,,,1.23,WeatherCatV1.11B39,2013-11-27 22:01:00,
2013-11-27 17:06:00,45.1,42.9,29.07,NW,304,0.0,0.0,92,0.00,,,1.23,WeatherCatV1.11B39,2013-11-27 22:06:00,
2013-11-27 17:11:00,45.0,42.8,29.08,WNW,292,0.0,0.0,92,0.00,,,1.23,WeatherCatV1.11B39,2013-11-27 22:11:00,
2013-11-27 17:16:00,44.6,42.4,29.09,WNW,293,2.0,5.0,92,0.00,,,1.23,WeatherCatV1.11B39,2013-11-27 22:16:00,
2013-11-27 17:21:00,44.5,42.3,29.08,WNW,294,0.0,0.0,92,0.00,,,1.23,WeatherCatV1.11B39,2013-11-27 22:21:00,
2013-11-27 17:26:00,44.3,42.1,29.07,WNW,296,0.0,0.0,92,0.00,,,1.23,WeatherCatV1.11B39,2013-11-27 22:26:00,
2013-11-27 17:31:00,44.1,41.9,29.07,NNW,330,0.0,0.0,92,0.00,,,1.23,WeatherCatV1.11B39,2013-11-27 22:31:00,
2013-11-27 17:36:00,43.9,41.7,29.08,WNW,288,3.0,5.0,92,0.00,,,1.24,WeatherCatV1.11B39,2013-11-27 22:36:00,
2013-11-27 17:41:00,43.6,41.4,29.08,WNW,291,0.0,8.0,92,0.00,,,1.24,WeatherCatV1.11B39,2013-11-27 22:41:00,
2013-11-27 17:46:00,43.5,41.3,29.07,WNW,291,1.0,3.0,92,0.00,,,1.24,WeatherCatV1.11B39,2013-11-27 22:46:00,
2013-11-27 17:51:00,43.3,41.1,29.07,WNW,293,0.0,0.0,92,0.00,,,1.25,WeatherCatV1.11B39,2013-11-27 22:51:00,
2013-11-27 17:56:00,43.1,40.9,29.08,WNW,293,0.0,8.0,92,0.00,,,1.25,WeatherCatV1.11B39,2013-11-27 22:56:00,
2013-11-27 18:01:00,42.9,40.5,29.08,NW,315,0.0,0.0,91,0.00,,,1.25,WeatherCatV1.11B39,2013-11-27 23:01:00,
2013-11-27 18:06:00,42.8,40.4,29.09,WNW,286,5.0,5.0,91,0.06,,,1.27,WeatherCatV1.11B39,2013-11-27 23:06:00,
2013-11-27 18:11:00,42.6,40.2,29.09,WNW,299,0.0,4.0,91,0.04,,,1.28,WeatherCatV1.11B39,2013-11-27 23:11:00,
2013-11-27 18:16:00,42.5,40.3,29.09,WNW,295,0.0,0.0,92,0.00,,,1.29,WeatherCatV1.11B39,2013-11-27 23:16:00,
2013-11-27 18:21:00,42.4,40.2,29.10,WNW,295,0.0,0.0,92,0.06,,,1.31,WeatherCatV1.11B39,2013-11-27 23:21:00,
2013-11-27 18:26:00,42.3,40.4,29.09,WNW,291,0.0,5.0,93,0.00,,,1.31,WeatherCatV1.11B39,2013-11-27 23:26:00,
2013-11-27 18:31:00,42.2,40.3,29.10,WNW,291,0.0,0.0,93,0.00,,,1.32,WeatherCatV1.11B39,2013-11-27 23:31:00,
2013-11-27 18:36:00,42.1,40.2,29.09,WNW,291,0.0,0.0,93,0.00,,,1.32,WeatherCatV1.11B39,2013-11-27 23:36:00,
2013-11-27 18:41:00,41.9,40.0,29.09,WNW,291,0.0,0.0,93,0.00,,,1.33,WeatherCatV1.11B39,2013-11-27 23:41:00,
2013-11-27 18:46:00,41.8,39.9,29.10,WNW,292,0.0,0.0,93,0.07,,,1.34,WeatherCatV1.11B39,2013-11-27 23:46:00,
2013-11-27 18:51:00,41.6,40.0,29.07,NNE,16,0.0,0.0,94,0.00,,,1.34,WeatherCatV1.11B39,2013-11-27 23:51:00,
2013-11-27 18:56:00,41.5,39.6,29.08,NW,306,0.0,0.0,93,0.00,,,1.34,WeatherCatV1.11B39,2013-11-27 23:56:00,
2013-11-27 19:01:00,41.3,39.4,29.09,WNW,302,0.0,0.0,93,0.00,,,1.34,WeatherCatV1.11B39,2013-11-28 00:01:00,
2013-11-27 19:06:00,41.2,39.3,29.10,WNW,293,0.0,10.0,93,0.00,,,1.34,WeatherCatV1.11B39,2013-11-28 00:06:00,
2013-11-27 19:11:00,41.1,39.2,29.11,WNW,288,7.0,11.0,93,0.02,,,1.35,WeatherCatV1.11B39,2013-11-28 00:11:00,
2013-11-27 19:16:00,41.1,39.2,29.11,NW,309,0.0,9.0,93,0.00,,,1.35,WeatherCatV1.11B39,2013-11-28 00:16:00,
2013-11-27 19:21:00,41.1,39.0,29.11,NW,316,0.0,0.0,92,0.00,,,1.35,WeatherCatV1.11B39,2013-11-28 00:21:00,
2013-11-27 19:26:00,40.9,39.0,29.11,WNW,301,2.0,7.0,93,0.00,,,1.35,WeatherCatV1.11B39,2013-11-28 00:26:00,
2013-11-27 19:31:00,40.8,38.7,29.12,NW,307,2.0,6.0,92,0.00,,,1.35,WeatherCatV1.11B39,2013-11-28 00:31:00,
2013-11-27 19:36:00,40.7,38.6,29.12,NW,310,6.0,6.0,92,0.00,,,1.35,WeatherCatV1.11B39,2013-11-28 00:36:00,
2013-11-27 19:41:00,40.5,38.4,29.12,North,6,0.0,4.0,92,0.00,,,1.35,WeatherCatV1.11B39,2013-11-28 00:41:00,
2013-11-27 19:46:00,40.4,38.3,29.12,WNW,285,2.0,10.0,92,0.00,,,1.36,WeatherCatV1.11B39,2013-11-28 00:46:00,
2013-11-27 19:51:00,40.4,38.3,29.13,WNW,302,1.0,3.0,92,0.00,,,1.36,WeatherCatV1.11B39,2013-11-28 00:51:00,
2013-11-27 19:56:00,40.2,38.1,29.13,WNW,294,0.0,2.0,92,0.00,,,1.36,WeatherCatV1.11B39,2013-11-28 00:56:00,
2013-11-27 20:01:00,40.1,38.0,29.13,WNW,291,7.0,7.0,92,0.00,,,1.36,WeatherCatV1.11B39,2013-11-28 01:01:00,
2013-11-27 20:06:00,39.9,37.5,29.14,WNW,289,3.0,5.0,91,0.00,,,1.36,WeatherCatV1.11B39,2013-11-28 01:06:00,
2013-11-27 20:11:00,39.6,36.9,29.14,WNW,287,14.0,14.0,90,0.00,,,1.36,WeatherCatV1.11B39,2013-11-28 01:11:00,
2013-11-27 20:16:00,39.5,36.8,29.15,WNW,293,3.0,12.0,90,0.00,,,1.37,WeatherCatV1.11B39,2013-11-28 01:16:00,
2013-11-27 20:21:00,39.4,36.7,29.14,WNW,297,0.0,1.0,90,0.00,,,1.37,WeatherCatV1.11B39,2013-11-28 01:21:00,
2013-11-27 20:26:00,39.1,36.4,29.15,WNW,286,14.0,15.0,90,0.00,,,1.38,WeatherCatV1.11B39,2013-11-28 01:26:00,
2013-11-27 20:31:00,38.9,36.2,29.15,WNW,297,7.0,9.0,90,0.00,,,1.38,WeatherCatV1.11B39,2013-11-28 01:31:00,
2013-11-27 20:36:00,38.8,36.1,29.15,NNW,343,0.0,5.0,90,0.00,,,1.38,WeatherCatV1.11B39,2013-11-28 01:36:00,
2013-11-27 20:41:00,38.6,35.6,29.17,WNW,285,7.0,7.0,89,0.00,,,1.38,WeatherCatV1.11B39,2013-11-28 01:41:00,
2013-11-27 20:46:00,38.5,35.3,29.16,WNW,287,0.0,3.0,88,0.00,,,1.38,WeatherCatV1.11B39,2013-11-28 01:46:00,
2013-11-27 20:51:00,38.5,35.3,29.16,WNW,293,1.0,6.0,88,0.00,,,1.38,WeatherCatV1.11B39,2013-11-28 01:51:00,
2013-11-27 20:56:00,38.3,35.1,29.16,WNW,294,0.0,11.0,88,0.00,,,1.38,WeatherCatV1.11B39,2013-11-28 01:56:00,
2013-11-27 21:01:00,38.2,35.0,29.17,WNW,303,0.0,10.0,88,0.00,,,1.38,WeatherCatV1.11B39,2013-11-28 02:01:00,
2013-11-27 21:06:00,37.9,34.7,29.17,NW,308,2.0,7.0,88,0.00,,,1.38,WeatherCatV1.11B39,2013-11-28 02:06:00,
2013-11-27 21:11:00,37.8,34.3,29.17,WNW,302,0.0,13.0,87,0.00,,,1.38,WeatherCatV1.11B39,2013-11-28 02:11:00,
2013-11-27 21:16:00,37.6,34.1,29.16,WNW,288,4.0,5.0,87,0.00,,,1.38,WeatherCatV1.11B39,2013-11-28 02:16:00,
2013-11-27 21:21:00,37.5,34.0,29.17,WNW,290,0.0,0.0,87,0.00,,,1.38,WeatherCatV1.11B39,2013-11-28 02:21:00,
2013-11-27 21:26:00,37.3,34.1,29.17,WNW,289,4.0,9.0,88,0.00,,,1.38,WeatherCatV1.11B39,2013-11-28 02:26:00,
2013-11-27 21:31:00,37.2,34.0,29.17,WNW,296,10.0,12.0,88,0.00,,,1.38,WeatherCatV1.11B39,2013-11-28 02:31:00,
2013-11-27 21:36:00,37.1,33.9,29.17,WNW,300,6.0,7.0,88,0.00,,,1.38,WeatherCatV1.11B39,2013-11-28 02:36:00,
2013-11-27 21:41:00,36.9,33.7,29.17,WNW,291,3.0,10.0,88,0.00,,,1.38,WeatherCatV1.11B39,2013-11-28 02:41:00,
2013-11-27 21:46:00,36.9,33.4,29.17,NW,307,0.0,13.0,87,0.00,,,1.38,WeatherCatV1.11B39,2013-11-28 02:46:00,
2013-11-27 21:51:00,36.8,33.0,29.18,West,278,6.0,13.0,86,0.00,,,1.38,WeatherCatV1.11B39,2013-11-28 02:51:00,
2013-11-27 21:56:00,36.7,32.9,29.18,WNW,291,3.0,9.0,86,0.00,,,1.38,WeatherCatV1.11B39,2013-11-28 02:56:00,
2013-11-27 22:01:00,36.5,32.7,29.18,WNW,293,2.0,8.0,86,0.00,,,1.38,WeatherCatV1.11B39,2013-11-28 03:01:00,
2013-11-27 22:06:00,36.5,32.7,29.18,NW,304,5.0,6.0,86,0.00,,,1.38,WeatherCatV1.11B39,2013-11-28 03:06:00,
2013-11-27 22:11:00,36.3,32.5,29.18,NNW,328,0.0,9.0,86,0.00,,,1.38,WeatherCatV1.11B39,2013-11-28 03:11:00,
2013-11-27 22:16:00,36.3,32.5,29.19,WNW,293,9.0,9.0,86,0.00,,,1.38,WeatherCatV1.11B39,2013-11-28 03:16:00,
2013-11-27 22:21:00,36.2,32.4,29.19,WNW,294,5.0,6.0,86,0.00,,,1.38,WeatherCatV1.11B39,2013-11-28 03:21:00,
2013-11-27 22:26:00,36.2,32.4,29.18,WNW,289,2.0,10.0,86,0.00,,,1.38,WeatherCatV1.11B39,2013-11-28 03:26:00,
2013-11-27 22:31:00,36.1,32.0,29.19,WNW,291,0.0,7.0,85,0.00,,,1.38,WeatherCatV1.11B39,2013-11-28 03:31:00,
2013-11-27 22:36:00,36.1,32.0,29.20,WNW,298,0.0,8.0,85,0.00,,,1.38,WeatherCatV1.11B39,2013-11-28 03:36:00,
2013-11-27 22:41:00,35.9,31.5,29.20,WNW,296,5.0,9.0,84,0.00,,,1.38,WeatherCatV1.11B39,2013-11-28 03:41:00,
2013-11-27 22:46:00,35.9,31.5,29.20,NW,310,5.0,10.0,84,0.00,,,1.38,WeatherCatV1.11B39,2013-11-28 03:46:00,
2013-11-27 22:51:00,35.9,31.2,29.21,WNW,289,6.0,6.0,83,0.00,,,1.38,WeatherCatV1.11B39,2013-11-28 03:51:00,
2013-11-27 22:56:00,35.9,31.2,29.21,WNW,294,2.0,16.0,83,0.00,,,1.38,WeatherCatV1.11B39,2013-11-28 03:56:00,
2013-11-27 23:01:00,35.9,31.0,29.21,WNW,292,3.0,10.0,82,0.00,,,1.38,WeatherCatV1.11B39,2013-11-28 04:01:00,
2013-11-27 23:06:00,35.9,31.0,29.22,WNW,299,3.0,3.0,82,0.00,,,1.38,WeatherCatV1.11B39,2013-11-28 04:06:00,
2013-11-27 23:11:00,35.9,31.0,29.21,WNW,303,0.0,4.0,82,0.00,,,1.38,WeatherCatV1.11B39,2013-11-28 04:11:00,
2013-11-27 23:16:00,35.9,31.0,29.22,WNW,294,4.0,8.0,82,0.00,,,1.38,WeatherCatV1.11B39,2013-11-28 04:16:00,
2013-11-27 23:21:00,35.9,31.0,29.22,WNW,294,5.0,8.0,82,0.00,,,1.38,WeatherCatV1.11B39,2013-11-28 04:21:00,
2013-11-27 23:26:00,35.9,30.6,29.22,WNW,295,0.0,5.0,81,0.00,,,1.38,WeatherCatV1.11B39,2013-11-28 04:26:00,
2013-11-27 23:31:00,35.9,30.6,29.23,WNW,284,14.0,14.0,81,0.00,,,1.38,WeatherCatV1.11B39,2013-11-28 04:31:00,
2013-11-27 23:36:00,35.9,30.3,29.24,WNW,295,7.0,9.0,80,0.00,,,1.38,WeatherCatV1.11B39,2013-11-28 04:36:00,
2013-11-27 23:41:00,35.9,30.3,29.25,WNW,295,6.0,13.0,80,0.00,,,1.38,WeatherCatV1.11B39,2013-11-28 04:41:00,
2013-11-27 23:46:00,35.9,30.3,29.25,WNW,291,1.0,10.0,80,0.00,,,1.38,WeatherCatV1.11B39,2013-11-28 04:46:00,
2013-11-27 23:51:00,35.9,30.0,29.26,WNW,291,4.0,12.0,79,0.00,,,1.38,WeatherCatV1.11B39,2013-11-28 04:51:00,
2013-11-27 23:56:00,36.1,29.9,29.27,WNW,296,1.0,13.0,78,0.00,,,1.38,WeatherCatV1.11B39,2013-11-28 04:56:00,